Location: Island Grove Observatory.
(44.2333°N, 79.4500°W)
Time: 11:51:51
(UTC-05:00)

N. Korean satellite - Pass Details

Date: 05 December 2021
Orbit: 447 x 491 km, 97.3° (Epoch: 23 January)

Event Time Altitude Azimuth Distance (km) Brightness Sun altitude
Rises 17:47:29 0° 210° (SSW) 2,525 11.1 -11.9°
Reaches altitude 10° 17:50:30 10° 240° (WSW) 1,641 10.7 -12.4°
Maximum altitude 17:52:12 13° 268° (W) 1,462 10.2 -12.7°
Drops below altitude 10° 17:53:54 10° 298° (WNW) 1,635 9.9 -12.9°
Sets 17:56:54 0° 327° (NNW) 2,506 10.4 -13.5°
